This is the latest recevied weather packets stored in our database for station/object WV8BRW. If no packets are shown the sender has not sent any weather packets the latest 10 day(s).
| Time | Temp. | Humidity | Pressure | Rain* | Wind** | Luminosity | Snow |
|---|---|---|---|---|---|---|---|
| 1778039049 | 14.44° C | 98% | 1006.3 hPa | 0 mm | - | 0 W/m² | - |
| 1778038746 | 14.44° C | 98% | 1006.2 hPa | 0 mm | - | 0 W/m² | - |
| 1778038443 | 15° C | 96% | 1006.2 hPa | 0 mm | - | 0 W/m² | - |
| 1778038140 | 15° C | 95% | 1006.3 hPa | 0 mm | - | 0 W/m² | - |
| 1778037836 | 15° C | 95% | 1006.4 hPa | 0 mm | - | 0 W/m² | - |
| 1778037533 | 15° C | 93% | 1006.9 hPa | 0 mm | - | 0 W/m² | - |
| 1778037230 | 15.56° C | 90% | 1006.6 hPa | 0 mm | - | 0 W/m² | - |
| 1778036928 | 16.11° C | 86% | 1006.3 hPa | 0 mm | - | 0 W/m² | - |
| 1778036626 | 16.11° C | 85% | 1006.4 hPa | 0 mm | - | 0 W/m² | - |
| 1778036323 | 16.67° C | 82% | 1006.4 hPa | 0 mm | - | 0 W/m² | - |
| 1778036019 | 16.67° C | 79% | 1006.6 hPa | 0 mm | - | 0 W/m² | - |
| 1778035716 | 17.22° C | 76% | 1006.6 hPa | 0 mm | - | 0 W/m² | - |
| 1778035413 | 16.67° C | 76% | 1006.7 hPa | 0 mm | - | 0 W/m² | - |
| 1778035109 | 17.22° C | 78% | 1006.7 hPa | 0 mm | - | 0 W/m² | - |
| 1778034806 | 17.22° C | 77% | 1006.9 hPa | 0 mm | - | 0 W/m² | - |
| 1778034503 | 17.22° C | 78% | 1006.7 hPa | 0 mm | - | 0 W/m² | - |
| 1778034201 | 17.22° C | 77% | 1006.7 hPa | 0 mm | - | 0 W/m² | - |
| 1778033899 | 17.78° C | 74% | 1006.6 hPa | 0 mm | - | 0 W/m² | - |
| 1778033595 | 17.22° C | 74% | 1006.7 hPa | 0 mm | - | 0 W/m² | - |
| 1778033292 | 17.22° C | 74% | 1006.8 hPa | 0 mm | - | 0 W/m² | - |
| 1778032990 | 17.22° C | 78% | 1006.8 hPa | 0 mm | - | 0 W/m² | - |
| 1778032687 | 17.22° C | 77% | 1006.8 hPa | 0 mm | - | 0 W/m² | - |
| 1778032385 | 17.78° C | 75% | 1006.7 hPa | 0 mm | - | 0 W/m² | - |
| 1778032081 | 17.78° C | 73% | 1006.3 hPa | 0 mm | - | 0 W/m² | - |
| 1778031778 | 17.78° C | 73% | 1006.4 hPa | 0 mm | - | 0 W/m² | - |
* Rain latest hour (hover to see other rain measurements)
** Current wind speed in m/s (hover to see current wind gust speed)